| time (UTC) | temp C | wind direction | speed KPH | gust KPH | rain 1hr cm | rain 24hr cm | rain mn cm | humidity % | barometer mb |
| 20260509213013 | 28 | 132 | 1.6 | 11.3 | 0.00 | 1.07 | 0.03 | 42 | 1008.4 |
| 20260509211513 | 28 | 135 | 1.6 | 14.5 | 0.00 | 1.07 | 0.03 | 47 | 1008.4 |
| 20260509210012 | 28 | 103 | 1.6 | 6.4 | 0.00 | 1.07 | 0.03 | 45 | 1008.5 |
| 20260509204509 | 28 | 96 | 1.6 | 6.4 | 0.00 | 1.07 | 0.03 | 44 | 1008.7 |
| 20260509203005 | 28 | 140 | 1.6 | 11.3 | 0.00 | 1.07 | 0.03 | 47 | 1009.1 |
| 20260509201501 | 28 | 105 | 1.6 | 6.4 | 0.00 | 1.07 | 0.03 | 47 | 1009.1 |
| 20260509200105 | 28 | 148 | 3.2 | 11.3 | 0.00 | 1.07 | 0.03 | 47 | 1009.2 |
| 20260509194600 | 28 | 148 | 1.6 | 6.4 | 0.00 | 1.07 | 0.03 | 48 | 1009.4 |
| 20260509193054 | 28 | 157 | 1.6 | 12.9 | 0.00 | 1.07 | 0.03 | 46 | 1009.6 |
| 20260509191601 | 27 | 81 | 1.6 | 4.8 | 0.00 | 1.07 | 0.03 | 46 | 1009.4 |
| 20260509190106 | 28 | 163 | 1.6 | 9.7 | 0.00 | 1.07 | 0.03 | 48 | 1009.8 |
| 20260509184552 | 27 | 146 | 1.6 | 6.4 | 0.00 | 1.07 | 0.03 | 49 | 1009.8 |
| 20260509183049 | 27 | 123 | 1.6 | 6.4 | 0.00 | 1.07 | 0.03 | 49 | 1010.1 |
| 20260509181548 | 27 | 144 | 3.2 | 6.4 | 0.00 | 1.07 | 0.03 | 51 | 1010.4 |
| 20260509180052 | 27 | 142 | 1.6 | 6.4 | 0.00 | 1.07 | 0.03 | 52 | 1010.6 |
| 20260509174546 | 27 | 153 | 1.6 | 9.7 | 0.00 | 1.07 | 0.03 | 56 | 1011.0 |
| 20260509173047 | 26 | 159 | 0.0 | 3.2 | 0.00 | 1.07 | 0.03 | 56 | 1011.2 |
| 20260509171546 | 26 | 158 | 0.0 | 8.0 | 0.00 | 1.07 | 0.03 | 60 | 1011.5 |
| 20260509170040 | 26 | 161 | 1.6 | 4.8 | 0.03 | 1.07 | 0.03 | 62 | 1011.4 |
| 20260509164547 | 25 | 154 | 0.0 | 11.3 | 0.03 | 1.07 | 0.03 | 66 | 1011.5 |
| 20260509163037 | 26 | 163 | 3.2 | 8.0 | 0.03 | 1.07 | 0.03 | 71 | 1011.5 |
| 20260509161535 | 25 | 162 | 0.0 | 4.8 | 0.03 | 1.07 | 0.03 | 74 | 1011.5 |
| 20260509160030 | 25 | 155 | 1.6 | 8.0 | 0.00 | 1.04 | 0.00 | 75 | 1011.7 |
| 20260509154525 | 25 | 167 | 0.0 | 8.0 | 0.00 | 1.04 | 0.00 | 76 | 1011.6 |
| 20260509153020 | 24 | 159 | 3.2 | 8.0 | 0.00 | 1.04 | 0.00 | 74 | 1011.7 |
| 20260509151518 | 23 | 154 | 3.2 | 8.0 | 0.00 | 1.04 | 0.00 | 75 | 1011.6 |
| 20260509150029 | 23 | 148 | 0.0 | 8.0 | 0.00 | 1.04 | 0.00 | 77 | 1011.5 |
| 20260509144511 | 22 | 157 | 1.6 | 4.8 | 0.00 | 1.04 | 0.00 | 79 | 1011.4 |
| 20260509143009 | 21 | 126 | 0.0 | 6.4 | 0.00 | 1.04 | 0.00 | 81 | 1011.4 |
| 20260509141508 | 21 | 119 | 0.0 | 3.2 | 0.00 | 1.04 | 0.00 | 86 | 1011.5 |
| 20260509140104 | 20 | 118 | 0.0 | 1.6 | 0.00 | 1.04 | 0.00 | 90 | 1011.5 |
| 20260509134626 | 18 | 118 | 0.0 | 3.2 | 0.00 | 1.04 | 0.00 | 93 | 1011.4 |
| 20260509133055 | 18 | 118 | 0.0 | 0.0 | 0.00 | 1.04 | 0.00 | 95 | 1011.3 |
| 20260509131551 | 16 | 116 | 0.0 | 0.0 | 0.00 | 1.04 | 0.00 | 95 | 1011.1 |
| 20260509130043 | 16 | 360 | 0.0 | 0.0 | 0.00 | 1.04 | 0.00 | 95 | 1010.8 |
| 20260509124538 | 15 | 360 | 0.0 | 0.0 | 0.00 | 1.04 | 0.00 | 95 | 1010.7 |
| 20260509123036 | 13 | 113 | 0.0 | 0.0 | 0.00 | 1.04 | 0.00 | 95 | 1010.5 |
| 20260509121532 | 13 | 113 | 0.0 | 0.0 | 0.00 | 1.04 | 0.00 | 95 | 1010.5 |
| 20260509120035 | 13 | 113 | 0.0 | 0.0 | 0.00 | 1.04 | 0.00 | 94 | 1010.3 |
| 20260509114531 | 13 | 111 | 0.0 | 0.0 | 0.00 | 1.04 | 0.00 | 94 | 1010.2 |
| 20260509113025 | 13 | 111 | 0.0 | 0.0 | 0.00 | 1.04 | 0.00 | 94 | 1009.9 |
| 20260509111525 | 13 | 111 | 0.0 | 0.0 | 0.00 | 1.04 | 0.00 | 94 | 1009.8 |
| 20260509110024 | 13 | 111 | 0.0 | 0.0 | 0.00 | 1.04 | 0.00 | 94 | 1009.8 |
| 20260509104523 | 13 | 111 | 0.0 | 0.0 | 0.00 | 1.04 | 0.00 | 94 | 1009.6 |
| 20260509103019 | 14 | 111 | 0.0 | 0.0 | 0.00 | 1.04 | 0.00 | 94 | 1009.8 |
| 20260509101531 | 14 | 111 | 0.0 | 0.0 | 0.00 | 1.04 | 0.00 | 94 | 1010.1 |
| 20260509100023 | 14 | 111 | 0.0 | 0.0 | 0.00 | 1.04 | 0.00 | 94 | 1010.2 |
| 20260509094520 | 14 | 111 | 0.0 | 0.0 | 0.00 | 1.04 | 0.00 | 94 | 1010.2 |
| 20260509093018 | 15 | 111 | 0.0 | 0.0 | 0.00 | 1.04 | 0.00 | 94 | 1010.2 |
| 20260509091519 | 15 | 111 | 0.0 | 0.0 | 0.00 | 1.04 | 0.00 | 94 | 1010.1 |
| 20260509090015 | 15 | 111 | 0.0 | 0.0 | 0.00 | 1.04 | 0.00 | 94 | 1010.2 |
| 20260509084516 | 15 | 111 | 0.0 | 0.0 | 0.00 | 1.04 | 0.00 | 94 | 1009.9 |
| 20260509083015 | 15 | 111 | 0.0 | 0.0 | 0.00 | 1.04 | 0.00 | 94 | 1010.1 |
| 20260509081509 | 15 | 111 | 0.0 | 0.0 | 0.00 | 1.04 | 0.00 | 94 | 1010.4 |
| 20260509080008 | 15 | 111 | 0.0 | 0.0 | 0.00 | 1.04 | 0.00 | 94 | 1010.6 |
| 20260509074507 | 15 | 111 | 0.0 | 0.0 | 0.00 | 1.04 | 0.00 | 94 | 1010.6 |
| 20260509073009 | 15 | 111 | 0.0 | 0.0 | 0.00 | 1.04 | 0.00 | 94 | 1010.8 |
| 20260509071505 | 15 | 111 | 0.0 | 0.0 | 0.00 | 1.04 | 0.00 | 94 | 1010.7 |
| 20260509070005 | 15 | 111 | 0.0 | 0.0 | 0.00 | 1.04 | 0.00 | 94 | 1010.8 |
| 20260509064504 | 15 | 112 | 0.0 | 0.0 | 0.00 | 1.04 | 0.00 | 94 | 1011.0 |
| 20260509063003 | 16 | 115 | 0.0 | 0.0 | 0.00 | 1.04 | 0.00 | 94 | 1011.1 |
| 20260509061502 | 15 | 360 | 0.0 | 0.0 | 0.00 | 1.04 | 0.00 | 94 | 1011.3 |
| 20260509060002 | 15 | 360 | 0.0 | 0.0 | 0.00 | 1.04 | 0.00 | 94 | 1011.4 |
| 20260509054502 | 15 | 360 | 0.0 | 1.6 | 0.00 | 1.04 | 0.00 | 94 | 1011.4 |
| 20260509053003 | 16 | 360 | 0.0 | 0.0 | 0.00 | 1.04 | 0.00 | 94 | 1011.4 |
| 20260509051559 | 15 | 360 | 0.0 | 3.2 | 0.00 | 1.04 | 0.00 | 94 | 1010.8 |
| 20260509050105 | 15 | 360 | 0.0 | 3.2 | 0.00 | 1.04 | 1.04 | 93 | 1010.2 |
| 20260509044554 | 16 | 167 | 0.0 | 1.6 | 0.00 | 1.04 | 1.04 | 93 | 1009.9 |
| 20260509043058 | 16 | 167 | 0.0 | 1.6 | 0.00 | 1.04 | 1.04 | 93 | 1010.0 |
| 20260509041553 | 16 | 167 | 0.0 | 1.6 | 0.00 | 1.04 | 1.04 | 93 | 1010.1 |
| 20260509040052 | 16 | 167 | 0.0 | 1.6 | 0.00 | 1.04 | 1.04 | 93 | 1010.1 |
| 20260509034555 | 17 | 167 | 0.0 | 0.0 | 0.00 | 1.04 | 1.04 | 93 | 1010.0 |
| 20260509033054 | 17 | 167 | 0.0 | 0.0 | 0.00 | 1.04 | 1.04 | 93 | 1009.7 |
| 20260509031550 | 17 | 167 | 0.0 | 1.6 | 0.00 | 1.04 | 1.04 | 93 | 1009.7 |
| 20260509030050 | 17 | 167 | 0.0 | 1.6 | 0.00 | 1.04 | 1.04 | 93 | 1009.3 |
| 20260509024549 | 17 | 167 | 0.0 | 1.6 | 0.00 | 1.04 | 1.04 | 93 | 1009.2 |
| 20260509023049 | 17 | 167 | 0.0 | 0.0 | 0.00 | 1.04 | 1.04 | 93 | 1008.7 |
| 20260509021549 | 17 | 167 | 0.0 | 1.6 | 0.00 | 1.04 | 1.04 | 93 | 1008.3 |
| 20260509020047 | 17 | 167 | 0.0 | 0.0 | 0.00 | 1.04 | 1.04 | 93 | 1008.4 |
| 20260509014547 | 17 | 167 | 0.0 | 0.0 | 0.00 | 1.04 | 1.04 | 93 | 1008.6 |
| 20260509013053 | 17 | 167 | 0.0 | 0.0 | 0.00 | 1.04 | 1.04 | 92 | 1008.4 |
| 20260509011546 | 17 | 165 | 0.0 | 3.2 | 0.00 | 1.04 | 1.04 | 92 | 1007.6 |
| 20260509010045 | 17 | 165 | 0.0 | 3.2 | 0.03 | 1.04 | 1.04 | 92 | 1007.3 |
| 20260509004556 | 17 | 164 | 0.0 | 8.0 | 0.64 | 1.04 | 1.04 | 92 | 1007.0 |
| 20260509003045 | 17 | 176 | 1.6 | 6.4 | 0.99 | 1.04 | 1.04 | 91 | 1007.2 |
| 20260509001550 | 17 | 201 | 0.0 | 3.2 | 1.04 | 1.04 | 1.04 | 90 | 1006.7 |
| 20260509000045 | 17 | 211 | 0.0 | 1.6 | 1.02 | 1.02 | 1.02 | 88 | 1007.4 |
| 20260508234543 | 17 | 30 | 0.0 | 12.9 | 0.41 | 0.41 | 0.41 | 86 | 1008.1 |
| 20260508233039 | 20 | 325 | 4.8 | 17.7 | 0.05 | 0.05 | 0.05 | 74 | 1007.4 |
| 20260508231538 | 26 | 360 | 3.2 | 14.5 | 0.00 | 0.00 | 0.00 | 56 | 1005.3 |
| 20260508230038 | 27 | 360 | 4.8 | 12.9 | 0.00 | 0.00 | 0.00 | 55 | 1005.6 |
| 20260508224546 | 27 | 360 | 3.2 | 6.4 | 0.00 | 0.00 | 0.00 | 54 | 1005.4 |
| 20260508223044 | 28 | 165 | 1.6 | 11.3 | 0.00 | 0.00 | 0.00 | 54 | 1005.6 |
| 20260508221534 | 28 | 198 | 3.2 | 14.5 | 0.00 | 0.00 | 0.00 | 54 | 1005.8 |
| 20260508220031 | 28 | 164 | 3.2 | 11.3 | 0.00 | 0.00 | 0.00 | 53 | 1006.1 |
| 20260508214548 | 28 | 360 | 3.2 | 12.9 | 0.00 | 0.00 | 0.00 | 55 | 1006.5 |